Location: Newark
(49.3000°N, 9.4667°E)
Time: 10:36:53
(UTC+00:00)

S-56A Canister/Altair - Visible Passes

Search period start: 19 May 2019 00:00
Search period end: 29 May 2019 00:00
Orbit: 633 x 2500 km, 38.9° (Epoch: 17 May)

Date Brightness Start Highest point End Pass type
(mag) Time Alt. Az. Time Alt. Az. Time Alt. Az.
19 May 10.1 00:31:03 13° SSE 00:33:10 14° SE 00:37:40 10° ESE visible
19 May 9.8 02:28:27 11° SW 02:35:36 38° SSE 02:46:02 10° E visible
19 May 10.3 23:59:53 11° SE 00:00:41 11° SE 00:02:42 10° ESE visible
20 May 9.7 01:57:17 15° SSW 02:02:50 34° SSE 02:12:19 10° E visible
21 May 9.5 01:26:06 19° SSW 01:30:08 30° SSE 01:38:36 10° E visible
22 May 9.4 00:54:54 21° S 00:57:30 26° SSE 01:04:54 10° E visible
23 May 9.5 00:23:41 21° SSE 00:24:57 22° SE 00:31:11 10° E visible
23 May 9.3 02:21:05 10° SW 02:27:52 42° SSE 02:37:58 10° ESE visible
23 May 9.6 23:52:29 18° SE 23:52:29 18° SE 23:57:27 10° ESE visible
24 May 9.2 01:49:53 16° SW 01:55:07 39° SSE 02:04:23 10° ESE visible
24 May 9.9 23:21:16 14° SE 23:21:16 14° SE 23:23:34 10° ESE visible
25 May 9.1 01:18:40 21° SSW 01:22:25 35° SSE 01:30:49 10° ESE visible
26 May 8.9 00:47:27 26° SSW 00:49:47 32° SSE 00:57:18 10° ESE visible
26 May 9.3 02:46:25 10° WSW 02:53:14 42° S 03:03:13 10° ESE visible
27 May 8.9 00:16:15 27° S 00:17:14 28° SSE 00:23:51 10° ESE visible
27 May 9.1 02:14:06 10° WSW 02:20:27 40° S 02:29:43 10° ESE visible
27 May 9.1 23:45:03 24° SSE 23:45:03 24° SSE 23:50:27 10° ESE visible
28 May 9.0 01:42:27 13° WSW 01:47:43 39° S 01:56:15 10° ESE visible
28 May 9.4 23:13:52 19° SE 23:13:52 19° SE 23:17:04 10° ESE visible
